SL-14 DEB, 47087

Orbit data source: Space-Track

SL-14 DEB, 47087 is space debris in LEO originally from a launch on Thu, 15 Aug 1991 UTC launched from the Plesetsk Missile And Space Complex (PKMTR). Debris objects in space refer to the collection of defunct objects orbiting the Earth. Examples of debris include non-operational satellites, rocket bodies, and fragments generated from explosions, collisions, or faulty payload assembly.

Loading next visibility...
Identifier
47087, 1991-056DM
Orbit
LEO
Country
Flag of CISCIS
Related business
Manufacturer
Unknown
Mission
Spacecraft
Bus & Motor
Unknown
Mass
Unknown
Launch date (UTC)
1991-08-15 (34 years ago)
Launch vehicle
Unknown
Launch site
Plesetsk Missile And Space Complex (PKMTR)
Object type
Payload
Rocket body
Debris
Shape & HBR
Unknown
Radar Cross Section
Small (<0.1 m²)

Expand to show TLE details & history
Last TLE update: 22 hours ago

TLE from 22 hours ago
0 SL-14 DEB
1 47087U 91056DM  25257.92514895  .00000118  00000-0  24404-3 0  9998
2 47087  82.6027 324.3583 0060124   6.4637 353.7251 13.24477026235147
Epoch: 2025-09-14T22:12Z
TLE epoch observation values (Epoch: 2025-09-14T22:12:12.869Z)
Latitude
-0.00005°
Longitude
-2.83249°
Altitude
1,125.385 km
Speed
7.312 km/s
True Right ascension
21h 37m 25s
True Declination
0° 00' 00"
Sunlit
Object was in full shadow at epoch
Visualization orbit readout
Latitude
Unknown
Longitude
Unknown
Altitude
Unknown
Speed
Unknown
Apparent Right ascension
Unknown
Apparent Declination
Unknown
Sunlit
N/A
Visualization observer readout
Local Sidereal Time
12:26:49
Azimuth
Unknown
Elevation
Unknown
Doppler factor
Unknown
Orbital elements
Apogee altitude
1,210.251 km
Perigee altitude
1,119.548 km
Semi-major axis
7,543.037 km
Eccentricity
0.00601
Inclination
82.6027°
RAAN
324.3583°
Arg. of periapsis
6.4637°
True anomaly
353.64923°
Mean anomaly
353.7251°
Eccentric anomaly
353.68722°
Mean motion
3.31302 °/min
Orbital period
108.66 mins
BSTAR
0.00024404
Loading maneuver chart data...
Computing Atmospheric mass density...
Loading historical data...
Loading historical data...
Loading historical data...
Loading historical data...
Loading historical data...
Loading historical data...
Loading historical data...

Documentation

Showing up to 5 results
|